Regional Weather Roundup
Issued by NWS

Home | Current Version | Previous Version | Graphics & Text | Print | Product List | Glossary On
Versions: 1 2 3 4 5 6 7 8 9 10 11 12 13 14 15 16 17 18 19 20 21 22 23 24 25 26 27 28 29 30 31 32 33 34 35 36 37 38 39 40 41 42 43 44 45 46 47 48 49 50
000
ASUS43 KFSD 240010
RWRSD

WEATHER ROUNDUP FOR SOUTH DAKOTA
NATIONAL WEATHER SERVICE SIOUX FALLS SD
600 PM CST THU FEB 23 2017

NOTE: "FAIR" INDICATES FEW OR NO CLOUDS BELOW 12,000 FEET WITH NO
SIGNIFICANT WEATHER AND/OR OBSTRUCTIONS TO VISIBILITY.


SDZ001>005-009-010-012>017-240100-
NORTHWEST AND NORTH CENTRAL SOUTH DAKOTA

CITY           SKY/WX    TMP DP  RH WIND       PRES   REMARKS
BUFFALO          N/A     29  25  85 NE21      29.90R WCI  16
FAITH            N/A     29  24  82 NE21      29.95R WCI  16
MOBRIDGE       CLOUDY    32  22  66 NE14      29.97R WCI  22
$$

SDZ012>016-024>037-041>051-057-063-072>074-240100-
SOUTHWEST AND SOUTH CENTRAL SOUTH DAKOTA

CITY           SKY/WX    TMP DP  RH WIND       PRES   REMARKS
RAPID CTY ARPT LGT SNOW  27  23  85 N14       29.91R FOG     WCI  16
PIERRE         CLOUDY    29  21  72 NE23G33   29.92S WCI  15
CUSTER         LGT SNOW  18  12  77 NE17G26   29.77R WCI   3
ELLSWORTH AFB  LGT SNOW  27  27  99 N12       29.91  FOG     WCI  17
PHILIP         CLOUDY    29  22  75 NE23G30   29.92R WCI  15
PINE RIDGE     LGT SNOW  26  23  88 N15       29.83R VSB 3/4 WCI  14
SPEARFISH      LGT SNOW  25  23  93 E10       29.91R WCI  15
WINNER         LGT SNOW  28  25  88 N24G30    29.85R VSB 1   WCI  14
$$

SDZ004>011-016>023-039-040-240100-
NORTHEAST SOUTH DAKOTA

CITY           SKY/WX    TMP DP  RH WIND       PRES   REMARKS
ABERDEEN       MOCLDY    28  20  71 NE16G25   30.00R WCI  16
WATERTOWN      CLOUDY    26  21  81 NE25G31   29.90F WCI  11
BROOKINGS      CLOUDY    28  23  81 NE20      29.84F WCI  15
SISSETON         N/A     28  23  81 NE22G29   30.01R WCI  14
$$

SDZ017-020-022-023-036>040-048>070-240100-
SOUTHEAST SOUTH DAKOTA

CITY           SKY/WX    TMP DP  RH WIND       PRES   REMARKS
SIOUX FALLS    LGT SNOW  30  27  88 NE22G31   29.79S FOG     WCI  17
HURON          CLOUDY    30  23  75 NE24      29.90F WCI  16
CHAMBERLAIN    CLOUDY    31  26  81 N21G29    29.86S WCI  18
MITCHELL       CLOUDY    30  26  85 NE22G31   29.85S WCI  17
YANKTON        CLOUDY    30  27  86 N20G28    29.75R WCI  18
$$

ABBREVIATIONS USED IN REMARKS
   TC - TEMPERATURE IN CELSIUS
  WCI - WIND CHILL INDEX
   HX - HEAT INDEX
  VSB - VISIBILITY





USA.gov is the U.S. government's official web portal to all federal, state and local government web resources and services.